| Date | Time | Temp. (oF) | Dew Point (oF) | Rel. Hum. (%) | Press. (in.) | Wind Dir. | Wind Speed (mph) | Hourly Rainfall (in.) |
|
|---|---|---|---|---|---|---|---|---|---|
| 1 | 12/08 | 00:00 | 42 | 41 | 100 | 30.01 | E | 0 | 0.00 |
| 2 | 12/07 | 23:00 | 42 | 41 | 100 | 30.03 | SE | 0 | 0.00 |
| 3 | 12/07 | 22:00 | 42 | 41 | 100 | 30.04 | E | 0 | 0.00 |
| 4 | 12/07 | 21:00 | 41 | 41 | 100 | 30.06 | ESE | 0 | 0.00 |
| 5 | 12/07 | 20:00 | 41 | 41 | 100 | 30.08 | E | 2 | 0.00 |
| 6 | 12/07 | 19:00 | 41 | 41 | 100 | 30.09 | E | 2 | 0.00 |
| 7 | 12/07 | 18:00 | 40 | 40 | 100 | 30.08 | ESE | 1 | 0.00 |
| 8 | 12/07 | 17:00 | 40 | 40 | 100 | 30.08 | ESE | 2 | 0.00 |
| 9 | 12/07 | 16:00 | 41 | 41 | 100 | 30.09 | ESE | 2 | 0.00 |
| 10 | 12/07 | 15:00 | 40 | 40 | 100 | 30.09 | SW | 1 | 0.00 |
| 11 | 12/07 | 14:00 | 40 | 40 | 100 | 30.10 | SSE | 5 | 0.01 |
| 12 | 12/07 | 13:00 | 39 | 39 | 100 | 30.11 | SSE | 4 | 0.00 |
| 13 | 12/07 | 12:00 | 38 | 37 | 100 | 30.15 | ENE | 3 | 0.00 |
| 14 | 12/07 | 11:00 | 37 | 36 | 100 | 30.18 | ESE | 2 | 0.02 |
| 15 | 12/07 | 10:00 | 36 | 36 | 100 | 30.20 | SSE | 3 | 0.02 |
| 16 | 12/07 | 09:00 | 36 | 36 | 100 | 30.20 | SSE | 3 | 0.01 |
| 17 | 12/07 | 08:00 | 35 | 35 | 100 | 30.20 | SSW | 2 | 0.00 |
| 18 | 12/07 | 07:00 | 35 | 34 | 98 | 30.20 | SE | 2 | 0.00 |
| 19 | 12/07 | 06:00 | 35 | 33 | 95 | 30.20 | W | 0 | 0.00 |
| 20 | 12/07 | 05:00 | 34 | 32 | 94 | 30.20 | ESE | 5 | 0.00 |
| 21 | 12/07 | 04:00 | 33 | 30 | 92 | 30.23 | S | 3 | 0.00 |
| 22 | 12/07 | 03:00 | 32 | 30 | 94 | 30.24 | SSW | 2 | 0.00 |
| 23 | 12/07 | 02:00 | 31 | 28 | 92 | 30.26 | NE | 1 | 0.00 |
| 24 | 12/07 | 01:00 | 30 | 27 | 89 | 30.27 | WSW | 0 | 0.00 |